Location: *
(43.7000°S, 168.7000°W)
Time: 15:04:37
(UTC+00:00)

SMAP - Pass Details

Date: 07 July 2020
Orbit: 681 x 683 km, 98.1° (Epoch: 04 August)

Event Time Altitude Azimuth Distance (km) Brightness Sun altitude
Rises 15:57:05 0° 36° (NE) 3,043 6.9 -30.0°
Reaches altitude 10° 15:59:26 10° 44° (NE) 2,135 6.2 -29.6°
Maximum altitude 16:03:44 37° 111° (ESE) 1,066 4.4 -28.8°
Enters shadow 16:06:09 22° 163° (SSE) 1,496 4.9 -28.4°
